Location: Cerezo de Arriba
(41.2389°N, 3.5585°W)
Time: 15:06:08
(UTC+00:00)

DELTA 2 R/B (1) - Pass Details

Date: 19 May 2025
Orbit: 787 x 800 km, 39.6° (Epoch: 22 June)

Event Time Altitude Azimuth Distance (km) Brightness Sun altitude
Rises 22:09:56 0° 257° (WSW) 3,270 7.0 -22.7°
Reaches altitude 10° 22:12:25 10° 255° (WSW) 2,344 6.2 -22.9°
Maximum altitude 22:17:55 72° 172° (S) 831 3.4 -23.4°
Enters shadow 22:19:08 53° 109° (ESE) 964 3.7 -23.5°
